Skip to main content

CRUISE INFORMATION RECORD AND DATA
 
NODC Cruise 32-8810 Information
WOD CRUISE REFERENCE # 32008810
DATA:
in WOD format 32008810_XBT.dat
32008810_CTD.dat
in 'csv' format 32008810_XBT.csv
32008810_CTD.csv
METADATA:
COUNTRY UNITED STATES (32)
NODC ACCESSION NUMBER (XBT) 8100518
NODC ACCESSION NUMBER (CTD) 8200065
NODC ACCESSION NUMBER (CTD) 9400167
SHIP NAME (8100518) GYRE
INSTITUTE (8100518) UNIVERSITY OF HAWAII AT MANOA; HONOLULU
INSTITUTE (8200065) SCRIPPS INSTITUTION OF OCEANOGRAPHY; LA JOLLA; CA
INSTITUTE (9400167) WOODS HOLE OCEANOGRAPHIC INSTITUTE (WHOI)
PROJECT (8100518) IDOE/NORPAX
PROJECT (8200065) IDOE/NORPAX
PROJECT (9400167) IDOE/NORPAX
SUBMITTING INFORMATION (8100518)  
SUBMITTING INSTITUTE UNIVERSITY OF HAWAII AT MANOA; HONOLULU
SUBMISSION DATE 3/13/1990
SUBMITTING INFORMATION (8200065)  
SUBMITTING INSTITUTE SCRIPPS INSTITUTION OF OCEANOGRAPHY; LA JOLLA; CA
SUBMISSION DATE 6/17/1981
SUBMITTING INFORMATION (9400167)  
SUBMITTING INSTITUTE WOODS HOLE OCEANOGRAPHIC INSTITUTE (WHOI)
SUBMITTING INVESTIGATOR BURGETT; RUSSELL
SUBMISSION DATE 10/28/1998
DATE OF FIRST CAST 6/17/1979
DATE OF LAST CAST 7/15/1979
TOTAL NUMBER OF CASTS 149
Temperature [t] PROFILES 149
Salinity [s] PROFILES 70
Transmissiv [v] PROFILES 44
Pressure [w] PROFILES 70
Conductivit [y] PROFILES 44
UNIQUE CAST # LATITUDE LONGITUDE DATE TIME PROBE TYPE
3262126 -17.085 -149.942 6/17/1979   CTD
2594458 -16.500 -150.000 6/18/1979 2.500 XBT
2594483 -15.500 -150.000 6/18/1979 10.150 XBT
2594519 -14.500 -150.000 6/18/1979 19.550 XBT
3262131 -15.020 -150.033 6/18/1979   CTD
3262129 -16.000 -150.000 6/18/1979   CTD
3262130 -14.000 -149.997 6/18/1979   CTD
2594573 -13.000 -150.000 6/19/1979 7.833 XBT
2594577 -13.000 -150.000 6/19/1979 8.000 XBT
3262137 -11.000 -150.000 6/19/1979   CTD
3262136 -13.018 -150.000 6/19/1979   CTD
3338981 -12.000 -150.000 6/19/1979   CTD
2594713 -8.500 -150.000 6/20/1979 20.933 XBT
3262155 -9.997 -149.995 6/20/1979   CTD
3262156 -9.000 -150.000 6/20/1979   CTD
2594745 -7.500 -150.000 6/21/1979 6.333 XBT
2594787 -6.500 -150.000 6/21/1979 17.733 XBT
3262179 -8.000 -150.000 6/21/1979   CTD
3338987 -5.990 -149.995 6/21/1979   CTD
3262177 -7.005 -150.000 6/21/1979   CTD
2594846 -5.500 -150.000 6/22/1979 1.500 XBT
2594877 -5.000 -150.000 6/22/1979 7.000 XBT
2594885 -4.500 -150.000 6/22/1979 10.417 XBT
2594916 -3.500 -150.000 6/22/1979 19.917 XBT
3262194 -3.000 -149.998 6/22/1979   CTD
3338996 -4.000 -149.992 6/22/1979   CTD
3262196 -5.000 -150.000 6/22/1979   CTD
2594958 -2.500 -150.000 6/23/1979 6.167 XBT
2595003 -1.500 -150.000 6/23/1979 18.500 XBT
3338997 -2.000 -149.997 6/23/1979   CTD
3262198 -1.007 -150.000 6/23/1979   CTD
2595058 -0.500 -150.000 6/24/1979 7.600 XBT
2595089 0.000 -150.000 6/24/1979 17.167 XBT
2595107 0.500 -150.000 6/24/1979 23.250 XBT
3262199 0.000 -150.000 6/24/1979   CTD
2595171 2.500 -150.000 6/25/1979 20.167 XBT
3262205 2.000 -150.000 6/25/1979   CTD
3262203 3.003 -150.010 6/25/1979   CTD
3338999 1.000 -150.000 6/25/1979   CTD
2595201 3.500 -150.000 6/26/1979 4.633 XBT
2595229 4.500 -150.000 6/26/1979 12.683 XBT
2595265 5.500 -150.000 6/26/1979 21.083 XBT
3262208 5.000 -150.000 6/26/1979   CTD
3262207 4.017 -149.998 6/26/1979   CTD
2595298 6.500 -150.000 6/27/1979 4.633 XBT
2595361 8.500 -150.000 6/27/1979 21.167 XBT
3262213 6.000 -150.000 6/27/1979   CTD
3339001 7.012 -149.967 6/27/1979   CTD
3262212 7.978 -150.027 6/27/1979   CTD
2595418 10.500 -150.000 6/28/1979 11.500 XBT
2595441 10.500 -150.000 6/28/1979 14.667 XBT
2595475 11.000 -150.500 6/28/1979 21.983 XBT
3339002 11.012 -149.968 6/28/1979   CTD
3262217 11.012 -150.032 6/28/1979   CTD
3262216 10.000 -150.000 6/28/1979   CTD
3262218 9.000 -150.000 6/28/1979   CTD
2595487 11.000 -151.000 6/29/1979 0.717 XBT
2595501 11.000 -151.500 6/29/1979 3.083 XBT
2595516 11.000 -152.000 6/29/1979 6.833 XBT
3262221 10.002 -153.020 6/29/1979   CTD
3339004 10.990 -152.997 6/29/1979   CTD
2595589 9.500 -153.000 6/30/1979 0.183 XBT
2595630 8.500 -153.000 6/30/1979 7.167 XBT
2595666 7.500 -153.000 6/30/1979 16.950 XBT
3262226 8.000 -153.000 6/30/1979   CTD
3262228 7.003 -152.995 6/30/1979   CTD
3262227 9.000 -153.000 6/30/1979   CTD
2595705 6.300 -153.000 7/1/1979 2.250 XBT
2595728 5.500 -153.000 7/1/1979 9.033 XBT
2595778 4.500 -153.000 7/1/1979 19.850 XBT
3262231 6.000 -153.000 7/1/1979   CTD
3262232 5.043 -152.970 7/1/1979   CTD
3262233 3.992 -152.997 7/1/1979   CTD
2595813 3.433 -153.000 7/2/1979 5.833 XBT
2595860 2.500 -153.000 7/2/1979 17.417 XBT
3339006 1.998 -152.993 7/2/1979   CTD
3339005 3.003 -152.993 7/2/1979   CTD
2595915 1.500 -153.000 7/3/1979 4.833 XBT
2595980 0.500 -153.000 7/3/1979 18.150 XBT
2595989 0.033 -153.000 7/3/1979 20.983 XBT
3339007 1.010 -152.993 7/3/1979   CTD
2596037 -0.500 -153.000 7/4/1979 6.333 XBT
2596083 -1.500 -153.000 7/4/1979 18.833 XBT
3262239 -0.998 -152.972 7/4/1979   CTD
3262237 -2.003 -152.997 7/4/1979   CTD
3339008 0.007 -152.978 7/4/1979   CTD
2596136 -2.500 -153.000 7/5/1979 6.167 XBT
2596178 -3.000 -153.500 7/5/1979 14.100 XBT
2596184 -3.000 -154.000 7/5/1979 16.650 XBT
2596198 -3.000 -154.500 7/5/1979 19.200 XBT
2596206 -3.000 -155.000 7/5/1979 21.717 XBT
3339017 -2.977 -152.998 7/5/1979   CTD
3262241 -3.023 -153.002 7/5/1979   CTD
2596231 -3.000 -155.500 7/6/1979 0.250 XBT
2596239 -3.000 -156.000 7/6/1979 2.667 XBT
2596248 -3.000 -156.500 7/6/1979 5.500 XBT
2596260 -3.000 -157.000 7/6/1979 8.750 XBT
2596267 -3.000 -157.500 7/6/1979 11.433 XBT
2596316 -2.500 -158.000 7/6/1979 20.033 XBT
3262245 -3.002 -158.013 7/6/1979   CTD
3262247 -1.990 -157.995 7/6/1979   CTD
2596346 -1.500 -158.000 7/7/1979 4.250 XBT
2596388 -0.500 -158.000 7/7/1979 17.500 XBT
2596403 0.000 -158.000 7/7/1979 20.083 XBT
3262251 -1.000 -157.988 7/7/1979   CTD
3262252 -0.007 -157.992 7/7/1979   CTD
2596437 0.500 -158.000 7/8/1979 2.667 XBT
2596479 1.500 -158.000 7/8/1979 14.767 XBT
3262260 1.000 -157.993 7/8/1979   CTD
3262259 1.982 -157.978 7/8/1979   CTD
2596511 2.500 -158.000 7/9/1979 0.500 XBT
2596527 3.500 -158.000 7/9/1979 7.783 XBT
2596561 4.500 -158.000 7/9/1979 17.650 XBT
3262268 3.985 -158.040 7/9/1979   CTD
3262267 3.000 -158.000 7/9/1979   CTD
3262269 4.988 -157.992 7/9/1979   CTD
2596613 5.500 -158.000 7/10/1979 2.833 XBT
2596657 6.500 -158.000 7/10/1979 10.000 XBT
2596719 7.500 -158.000 7/10/1979 19.483 XBT
3262290 8.002 -158.013 7/10/1979   CTD
3339067 7.000 -158.000 7/10/1979   CTD
3262291 6.002 -157.978 7/10/1979   CTD
2596770 8.500 -158.000 7/11/1979 3.650 XBT
2596816 9.500 -158.000 7/11/1979 12.000 XBT
2596879 10.500 -158.000 7/11/1979 20.583 XBT
3262301 10.000 -158.000 7/11/1979   CTD
3339084 9.010 -157.998 7/11/1979   CTD
2596921 11.500 -158.000 7/12/1979 3.750 XBT
2596965 12.500 -158.000 7/12/1979 12.350 XBT
2597006 13.500 -158.000 7/12/1979 18.467 XBT
3262307 12.015 -157.990 7/12/1979   CTD
3262305 14.003 -158.000 7/12/1979   CTD
3262306 11.000 -158.000 7/12/1979   CTD
3262308 13.000 -158.000 7/12/1979   CTD
2597056 14.500 -158.000 7/13/1979 1.500 XBT
2597085 15.500 -158.000 7/13/1979 7.500 XBT
2597136 16.500 -158.000 7/13/1979 16.633 XBT
2597168 17.500 -158.000 7/13/1979 23.650 XBT
3262312 15.995 -157.988 7/13/1979   CTD
3262313 14.980 -157.990 7/13/1979   CTD
3262314 16.997 -157.995 7/13/1979   CTD
2597194 18.333 -158.000 7/14/1979 4.500 XBT
2597197 18.500 -158.000 7/14/1979 6.750 XBT
2597241 19.500 -158.000 7/14/1979 13.250 XBT
2597275 20.500 -157.900 7/14/1979 20.933 XBT
3262319 18.998 -157.997 7/14/1979   CTD
3262318 18.000 -158.000 7/14/1979   CTD
3262317 19.980 -157.997 7/14/1979   CTD
2597315 21.000 -158.000 7/15/1979 2.000 XBT